#�ϑ�����,���ϕ���,���ϕ���,�ő啗��,�ő啗����������,�ő�u�ԕ���,�ő�u�ԕ�����������
#(�N����),(m/s)   ,(16����),(m/s)   ,(16����)        ,(m/s)       ,(16����)            
2012/8/28 0:01,1.9,2,2,3,2,2
2012/8/28 0:02,1.8,2,1.9,3,2,16
2012/8/28 0:03,1.7,2,1.8,3,2,3
2012/8/28 0:04,1.7,2,1.7,3,2.4,2
2012/8/28 0:05,1.6,2,1.7,3,2.2,4
2012/8/28 0:06,1.5,2,1.6,3,1.9,4
2012/8/28 0:07,1.5,3,1.5,3,2.5,3
2012/8/28 0:08,1.4,3,1.5,2,2.2,3
2012/8/28 0:09,1.3,3,1.4,2,2,4
2012/8/28 0:10,1.3,3,1.3,2,2,6
2012/8/28 0:11,1.3,3,1.3,2,1.8,4
2012/8/28 0:12,1.2,3,1.3,2,1.4,5
2012/8/28 0:13,1.3,3,1.3,2,2.2,5
2012/8/28 0:14,1.3,3,1.3,2,2.1,3
2012/8/28 0:15,1.2,3,1.2,2,1.1,3
2012/8/28 0:16,1.2,3,1.2,2,1.3,3
2012/8/28 0:17,1.2,3,1.2,3,1.8,3
2012/8/28 0:18,1.2,3,1.3,3,3.5,4
2012/8/28 0:19,1.3,3,1.3,3,3.1,2
2012/8/28 0:20,1.3,3,1.4,3,2.1,3
2012/8/28 0:21,1.3,3,1.3,3,1.3,2
2012/8/28 0:22,1.3,3,1.3,3,1.5,3
2012/8/28 0:23,1.3,3,1.3,3,2.1,3
2012/8/28 0:24,1.2,3,1.3,3,1.6,4
2012/8/28 0:25,1.2,3,1.2,3,1.9,6
2012/8/28 0:26,1.3,3,1.3,3,1.8,1
2012/8/28 0:27,1.3,3,1.3,3,2.4,3
2012/8/28 0:28,1.3,3,1.3,3,2.5,3
2012/8/28 0:29,1.3,3,1.3,3,2.5,2
2012/8/28 0:30,1.3,3,1.3,3,2,2
2012/8/28 0:31,1.4,3,1.4,3,3.3,4
2012/8/28 0:32,1.5,3,1.5,3,3.1,3
2012/8/28 0:33,1.7,3,1.7,3,3.8,4
2012/8/28 0:34,1.7,3,1.7,3,2.5,3
2012/8/28 0:35,1.7,3,1.7,3,3.1,3
2012/8/28 0:36,1.8,3,1.8,3,2.7,4
2012/8/28 0:37,1.8,3,1.8,3,2.4,4
2012/8/28 0:38,1.8,3,1.8,3,1.9,3
2012/8/28 0:39,1.7,3,1.8,3,2.6,3
2012/8/28 0:40,1.7,3,1.8,3,2.1,2
2012/8/28 0:41,1.8,3,1.8,3,2.6,2
2012/8/28 0:42,1.8,3,1.8,3,2.7,3
2012/8/28 0:43,1.7,3,1.8,3,3.3,3
2012/8/28 0:44,1.8,3,1.8,3,2.7,3
2012/8/28 0:45,1.9,3,1.9,3,3.6,3
2012/8/28 0:46,1.9,3,1.9,3,3.2,4
2012/8/28 0:47,2,3,2,3,2.9,3
2012/8/28 0:48,2.1,3,2.1,3,4.5,3
2012/8/28 0:49,2.2,3,2.2,3,3.5,4
2012/8/28 0:50,2.2,3,2.2,3,3,3
2012/8/28 0:51,2.3,3,2.3,3,3.5,3
2012/8/28 0:52,2.4,3,2.4,3,3.2,3
2012/8/28 0:53,2.3,3,2.4,3,3.1,3
2012/8/28 0:54,2.3,3,2.3,3,3.3,4
2012/8/28 0:55,2.3,3,2.4,3,3.6,2
2012/8/28 0:56,2.3,3,2.3,3,3.5,3
2012/8/28 0:57,2.3,3,2.3,3,3.8,3
2012/8/28 0:58,2.2,3,2.3,3,4.1,3
2012/8/28 0:59,2.3,3,2.3,3,4.9,3
2012/8/28 1:00,2.3,3,2.3,3,3,4
2012/8/28 1:01,2.3,3,2.3,3,4.2,4
2012/8/28 1:02,2.3,3,2.3,3,3.6,3
2012/8/28 1:03,2.3,3,2.3,3,3,4
2012/8/28 1:04,2.3,3,2.3,3,2.4,3
2012/8/28 1:05,2.3,3,2.3,3,4.2,4
2012/8/28 1:06,2.3,3,2.3,3,2.9,2
2012/8/28 1:07,2.2,3,2.3,3,3,3
2012/8/28 1:08,2.2,3,2.2,3,2.9,2
2012/8/28 1:09,2.2,3,2.2,3,3.7,4
2012/8/28 1:10,2.1,3,2.2,3,3,5
2012/8/28 1:11,2.1,3,2.1,3,3.2,3
2012/8/28 1:12,2.1,3,2.2,3,3.6,3
2012/8/28 1:13,2.2,3,2.2,3,3.5,3
2012/8/28 1:14,2.3,3,2.3,3,3.6,3
2012/8/28 1:15,2.3,3,2.3,3,3.6,4
2012/8/28 1:16,2.4,3,2.4,3,4.3,3
2012/8/28 1:17,2.6,3,2.6,3,4.8,3
2012/8/28 1:18,2.7,3,2.7,3,4.4,3
2012/8/28 1:19,2.7,3,2.7,3,4.5,3
2012/8/28 1:20,2.8,3,2.8,3,3.7,2
2012/8/28 1:40,2.2,3,2.2,3,2.7,2
2012/8/28 1:41,1.4,3,2.2,3,2.7,2
2012/8/28 1:42,1.7,3,1.7,3,3,4
2012/8/28 1:43,1.9,3,1.9,3,3,3
2012/8/28 1:44,2,3,2,3,3,5
2012/8/28 1:45,2,3,2,3,3.5,4
2012/8/28 1:46,2.1,3,2.1,3,3.3,3
2012/8/28 1:47,2.3,3,2.3,3,4.2,3
2012/8/28 1:48,2.3,3,2.3,3,3.9,3
2012/8/28 1:49,2.3,3,2.3,3,3.7,4
2012/8/28 1:50,2.4,3,2.4,3,3.8,3
2012/8/28 1:51,2.5,3,2.5,3,3.5,3
2012/8/28 1:52,2.6,3,2.6,3,4.2,4
2012/8/28 1:53,2.6,3,2.6,3,4.1,5
2012/8/28 1:54,2.7,3,2.7,3,3.8,3
2012/8/28 1:55,2.8,3,2.8,3,4.1,3
2012/8/28 1:56,2.7,4,2.8,3,2.9,4
2012/8/28 1:57,2.7,4,2.7,3,4.3,3
2012/8/28 1:58,2.6,4,2.7,3,3.2,4
2012/8/28 1:59,2.6,4,2.7,3,2.5,5
2012/8/28 2:00,2.5,4,2.6,3,3.5,4
2012/8/28 2:01,2.5,4,2.5,3,3.2,4
2012/8/28 2:02,2.4,4,2.5,3,3.8,3
2012/8/28 2:03,2.5,4,2.5,3,4.1,3
2012/8/28 2:04,2.4,4,2.4,3,2.9,5
2012/8/28 2:05,2.3,4,2.4,3,3.6,2
2012/8/28 2:06,2.4,4,2.4,4,4.7,3
2012/8/28 2:07,2.4,4,2.4,4,4.8,4
2012/8/28 2:08,2.6,4,2.6,4,5.4,4
2012/8/28 2:09,2.7,4,2.7,4,4.3,3
2012/8/28 2:10,2.6,4,2.7,4,4.4,4
2012/8/28 2:11,2.7,4,2.7,4,4.3,4
2012/8/28 2:39,2.4,6,2.4,6,2.5,6
2012/8/28 2:40,3.8,4,3.9,5,5.7,3
2012/8/28 2:41,4.5,4,4.5,4,6.9,5
2012/8/28 2:42,4.5,5,4.7,5,6.1,5
2012/8/28 2:43,4,4,4.4,5,4.1,4
2012/8/28 2:44,3.8,4,3.9,5,4.4,4
2012/8/28 2:45,3.6,4,3.7,5,4.4,4
2012/8/28 4:28,3.3,6,3.3,6,3.3,6
2012/8/28 4:29,4,6,4.1,6,5.7,6
2012/8/28 4:30,3.6,6,4,6,4.4,6
2012/8/28 4:31,3.5,5,3.6,6,5.1,5
2012/8/28 4:32,3.5,5,3.5,6,4.9,7
2012/8/28 4:33,3.4,5,3.4,6,5.2,5
2012/8/28 4:34,3.5,5,3.5,6,6,4
2012/8/28 4:35,3.4,5,3.5,6,5.2,5
2012/8/28 4:36,3.3,5,3.4,6,3.6,4
2012/8/28 4:37,3.2,5,3.3,6,4.2,4
2012/8/28 4:38,3.1,5,3.2,6,3.5,5
2012/8/28 4:39,3,5,3.1,6,5.8,5
2012/8/28 4:40,3,5,3.1,5,4.2,5
2012/8/28 4:41,3,5,3,5,4.1,5
2012/8/28 4:42,3.1,5,3.1,5,7.2,5
2012/8/28 4:43,3.2,5,3.2,5,6.2,5
2012/8/28 4:44,3.3,5,3.3,5,6.1,5
2012/8/28 4:45,3.3,5,3.4,5,5.1,5
2012/8/28 4:46,3.5,5,3.5,5,5.6,5
2012/8/28 4:47,3.6,5,3.6,5,4.5,5
2012/8/28 4:48,3.6,5,3.6,5,3.7,5
2012/8/28 4:49,3.6,5,3.6,5,5.6,5
2012/8/28 4:50,3.5,5,3.6,5,4.1,6
2012/8/28 4:51,3.6,5,3.6,5,6.1,4
2012/8/28 4:52,3.5,5,3.6,5,4.7,3
2012/8/28 4:53,3.4,5,3.5,5,5,5
2012/8/28 4:54,3.3,5,3.4,5,6.4,5
2012/8/28 4:55,3.3,5,3.3,5,7,5
2012/8/28 4:56,3.3,5,3.4,5,6.4,3
2012/8/28 4:57,3.3,4,3.4,5,4.5,3
2012/8/28 4:58,3.4,4,3.4,5,4.4,2
2012/8/28 4:59,3.3,4,3.5,5,4.4,3
2012/8/28 5:00,3.4,4,3.4,5,4.8,4
2012/8/28 5:01,3.3,4,3.4,5,6,3
2012/8/28 5:02,3.3,4,3.3,5,5,4
2012/8/28 5:03,3.4,4,3.4,4,4.7,4
2012/8/28 5:04,3.3,4,3.4,4,4.9,3
2012/8/28 5:05,3.2,4,3.3,4,4.5,3
2012/8/28 5:06,3.1,3,3.2,4,6.4,4
2012/8/28 5:07,3.3,3,3.3,4,7.1,3
2012/8/28 5:08,3.4,4,3.4,4,6.3,3
2012/8/28 5:09,3.5,3,3.5,3,5.6,4
2012/8/28 5:10,3.6,3,3.6,3,6.3,3
2012/8/28 5:11,3.8,3,3.8,3,7.4,3
2012/8/28 5:12,4.1,3,4.1,3,6.9,3
2012/8/28 5:13,4,3,4.1,3,5.7,3
2012/8/28 5:14,4,3,4,3,6.1,3
2012/8/28 5:15,4,3,4,3,5.1,3
2012/8/28 5:16,4.1,3,4.2,3,4.9,3
2012/8/28 5:17,3.9,3,4.1,3,4.2,3
2012/8/28 5:18,3.8,3,3.9,3,6.1,2
2012/8/28 5:19,3.8,3,3.8,3,5.8,3
2012/8/28 5:20,3.7,3,3.8,3,5.8,5
2012/8/28 5:21,3.6,3,3.7,3,5.2,5
2012/8/28 5:22,3.5,3,3.5,3,7.2,4
2012/8/28 5:23,3.7,3,3.7,3,7.2,4
2012/8/28 5:24,3.7,4,3.8,3,5.4,3
2012/8/28 5:25,3.6,4,3.7,3,3.6,3
2012/8/28 5:26,3.5,4,3.6,3,3.9,3
2012/8/28 5:27,3.6,4,3.6,3,7.2,5
2012/8/28 5:28,3.7,4,3.8,3,6,5
2012/8/28 5:29,3.7,4,3.7,3,4.9,4
2012/8/28 5:30,3.7,4,3.7,4,5.1,4
2012/8/28 5:31,3.8,4,3.8,4,4.3,5
2012/8/28 5:32,3.6,4,3.8,4,4.1,3
2012/8/28 5:33,3.3,4,3.5,4,4.7,5
2012/8/28 5:34,3.3,4,3.3,4,4.9,6
2012/8/28 5:35,3.5,4,3.5,4,6.2,4
2012/8/28 5:36,3.5,4,3.5,4,5.2,5
2012/8/28 5:37,3.4,4,3.5,4,5.5,4
2012/8/28 5:38,3.3,4,3.4,4,5.2,4
2012/8/28 5:39,3.2,4,3.3,4,4.4,4
2012/8/28 5:40,3.1,4,3.2,4,4.2,5
2012/8/28 5:41,3.1,4,3.1,4,4.3,3
2012/8/28 5:42,3,4,3.1,4,3.5,4
2012/8/28 5:43,2.9,4,3,4,2.2,4
2012/8/28 5:44,2.7,4,2.9,4,3.7,4
2012/8/28 5:45,2.6,4,2.7,4,3.5,4
2012/8/28 5:46,2.5,4,2.6,4,3.6,5
2012/8/28 5:47,2.5,4,2.5,4,3.7,5
2012/8/28 5:48,2.5,4,2.5,4,5,5
2012/8/28 5:49,2.6,4,2.6,4,6.1,4
2012/8/28 5:50,2.7,4,2.7,4,5.5,4
2012/8/28 5:51,2.8,5,2.8,4,6.1,5
2012/8/28 5:52,3,5,3,4,5.8,5
2012/8/28 5:53,3.2,5,3.2,5,5.2,5
2012/8/28 5:54,3.2,5,3.2,5,3.2,4
2012/8/28 5:55,3.3,5,3.3,5,4.2,5
2012/8/28 5:56,3.2,5,3.3,5,3.9,5
2012/8/28 5:57,3.4,5,3.4,5,5.7,5
2012/8/28 5:58,3.4,5,3.5,5,5.2,4
2012/8/28 5:59,3.3,5,3.4,5,5.7,4
2012/8/28 6:00,3.2,5,3.3,5,4.7,5
2012/8/28 6:01,3.1,5,3.2,5,4.5,4
2012/8/28 6:02,3,5,3,5,5,5
2012/8/28 6:03,2.9,5,3,5,4.5,5
2012/8/28 6:04,3,4,3,5,4.3,3
2012/8/28 6:05,3,4,3,5,5.1,3
2012/8/28 6:06,3.1,4,3.1,5,5.5,5
2012/8/28 6:07,3,4,3.1,5,5.6,4
2012/8/28 6:08,3,4,3,5,5.7,4
2012/8/28 6:09,3.2,4,3.2,5,6.4,5
2012/8/28 6:10,3.3,4,3.3,4,6.9,5
2012/8/28 6:11,3.4,4,3.4,4,5.6,4
2012/8/28 6:12,3.4,4,3.5,4,4.9,5
2012/8/28 6:13,3.4,4,3.4,4,4.3,4
2012/8/28 6:14,3.6,4,3.6,4,6.7,4
2012/8/28 6:15,3.8,4,3.8,4,7.8,5
2012/8/28 6:16,3.8,4,3.9,4,4.9,5
2012/8/28 6:17,3.8,4,3.8,4,6.2,4
2012/8/28 6:18,3.7,4,3.8,4,5.5,4
2012/8/28 6:19,3.7,4,3.8,4,6,4
2012/8/28 6:20,3.5,4,3.7,4,4.8,4
2012/8/28 6:21,3.3,4,3.5,4,4.8,3
2012/8/28 6:22,3.3,4,3.4,4,6.4,5
2012/8/28 6:23,3.4,4,3.5,4,6.3,5
2012/8/28 6:24,3.4,4,3.5,4,7.1,4
2012/8/28 6:25,3.2,4,3.4,4,5.1,3
2012/8/28 6:26,3.3,4,3.3,4,7.7,5
2012/8/28 6:27,3.6,4,3.6,4,7.4,5
2012/8/28 6:28,3.7,4,3.7,4,5.1,4
2012/8/28 6:29,3.6,5,3.7,4,5.6,5
2012/8/28 6:30,3.8,5,3.8,5,7.1,5
2012/8/28 6:31,3.9,5,3.9,5,5.7,6
2012/8/28 6:32,3.8,5,3.9,5,5.7,4
2012/8/28 6:33,3.9,4,3.9,5,7,5
2012/8/28 6:34,3.9,4,3.9,5,5.6,4
2012/8/28 6:35,3.8,4,3.9,5,4.2,4
2012/8/28 6:36,3.7,4,3.8,5,4.5,6
2012/8/28 6:37,3.6,4,3.7,5,7,5
2012/8/28 6:38,3.7,4,3.7,5,6.2,5
2012/8/28 6:39,3.8,4,3.8,5,7.2,5
2012/8/28 6:40,3.7,4,3.8,5,4.4,4
2012/8/28 6:41,3.7,4,3.7,5,4.7,3
2012/8/28 6:42,3.9,4,3.9,5,6.8,4
2012/8/28 6:43,3.8,4,3.8,4,5.7,5
2012/8/28 6:44,3.7,4,3.7,4,4.9,3
2012/8/28 6:45,3.7,4,3.7,4,6.3,4
2012/8/28 6:46,3.8,4,3.8,4,6.1,4
2012/8/28 6:47,3.6,4,3.8,4,3.5,4
2012/8/28 6:48,3.5,4,3.5,4,4.8,5
2012/8/28 6:49,3.3,4,3.5,4,3.9,3
2012/8/28 6:50,3.2,4,3.3,4,3.8,4
2012/8/28 6:51,3.1,4,3.2,4,3.2,3
2012/8/28 6:52,3,4,3.1,4,5,3
2012/8/28 6:53,2.9,4,3,4,4.8,5
2012/8/28 6:54,2.8,4,2.8,4,3.3,3
2012/8/28 6:55,2.7,4,2.8,4,5.4,4
2012/8/28 6:56,2.6,4,2.7,4,3.8,6
2012/8/28 6:57,2.6,4,2.6,4,4.3,3
2012/8/28 6:58,2.7,4,2.7,4,6.4,5
2012/8/28 6:59,2.7,4,2.7,4,4.7,4
2012/8/28 7:00,2.7,4,2.7,4,4.4,3
2012/8/28 7:01,3,4,3,4,5.5,5
2012/8/28 7:02,2.9,4,3,4,3.3,5
2012/8/28 7:03,2.9,4,2.9,4,4.4,4
2012/8/28 7:04,3,5,3,4,4.7,4
2012/8/28 7:05,3.1,5,3.1,5,6.5,5
2012/8/28 7:06,3.2,5,3.2,5,6,6
2012/8/28 7:07,3.2,5,3.2,5,4.5,4
2012/8/28 7:08,3.1,5,3.2,5,4.3,4
2012/8/28 7:09,3.1,5,3.1,5,5.8,5
2012/8/28 7:10,3.2,5,3.2,5,5,3
2012/8/28 7:11,3.1,5,3.2,5,6.2,5
2012/8/28 7:12,3.1,5,3.1,5,4.5,5
2012/8/28 7:13,3.2,5,3.2,5,4.1,3
2012/8/28 7:14,3.3,5,3.3,5,7.2,6
2012/8/28 7:15,3.4,5,3.4,5,6.3,5
2012/8/28 7:16,3.4,5,3.4,5,5.5,4
2012/8/28 7:17,3.4,5,3.4,5,4.9,5
2012/8/28 7:18,3.4,5,3.4,5,4.2,6
2012/8/28 7:19,3.3,5,3.4,5,4.2,6
2012/8/28 7:20,3.3,5,3.3,5,5.5,4
2012/8/28 7:21,3.4,5,3.4,5,6.9,4
2012/8/28 7:22,3.4,5,3.4,5,5.7,5
2012/8/28 7:23,3.5,5,3.5,5,6.1,6
2012/8/28 7:24,3.4,5,3.5,5,5.8,6
2012/8/28 7:25,3.2,5,3.4,5,4.4,6
2012/8/28 7:26,3.1,5,3.2,5,4.8,4
2012/8/28 7:27,3.1,5,3.1,5,5.7,4
2012/8/28 7:28,3.2,5,3.2,5,6,5
2012/8/28 7:29,3.2,5,3.2,5,5.2,4
2012/8/28 7:30,3.4,5,3.4,5,7.7,7
2012/8/28 7:31,3.5,6,3.5,5,6,6
2012/8/28 7:32,3.7,6,3.7,6,7.4,6
2012/8/28 7:33,3.6,6,3.7,6,5.7,6
2012/8/28 7:34,3.5,6,3.5,6,4.2,7
2012/8/28 7:35,3.4,5,3.4,6,4.7,4
2012/8/28 7:36,3.6,6,3.6,6,6.3,6
2012/8/28 7:37,3.8,6,3.8,6,7,6
2012/8/28 7:38,3.8,6,3.9,6,6.9,6
2012/8/28 7:39,3.8,6,3.9,6,4.8,5
2012/8/28 7:40,3.6,6,3.8,6,5.2,5
2012/8/28 7:41,3.5,6,3.6,6,5,6
2012/8/28 7:42,3.2,6,3.5,6,3.7,5
2012/8/28 7:43,3.1,5,3.1,6,4.8,4
2012/8/28 7:44,3.2,5,3.2,6,5,5
2012/8/28 7:45,3.2,5,3.2,6,3.5,4
2012/8/28 7:46,3,5,3.1,6,6,3
2012/8/28 7:47,3,5,3.1,6,6.4,5
2012/8/28 7:48,2.9,5,3,6,4.4,5
2012/8/28 7:49,3.1,5,3.1,6,6.2,4
2012/8/28 7:50,3.3,5,3.3,6,8.1,6
2012/8/28 7:51,3.5,5,3.5,6,7,6
2012/8/28 7:52,3.8,5,3.8,5,6,6
2012/8/28 7:53,3.8,5,3.8,5,5.2,6
2012/8/28 7:54,3.9,5,3.9,5,7.2,6
2012/8/28 7:55,4.1,5,4.1,5,7,6
2012/8/28 7:56,4.1,6,4.2,5,6.8,5
2012/8/28 7:57,4.1,6,4.1,5,7.4,5
2012/8/28 7:58,4.4,6,4.4,6,8.4,6
2012/8/28 7:59,4.5,6,4.5,6,8.9,4
2012/8/28 8:00,4.5,6,4.6,6,8.2,6
2012/8/28 8:01,4.4,6,4.5,6,6,5
2012/8/28 8:02,4.3,6,4.4,6,4.5,5
2012/8/28 8:03,4.3,5,4.4,6,4.8,5
2012/8/28 8:04,4.3,5,4.3,6,6.2,5
2012/8/28 8:05,4.4,5,4.4,6,6.3,6
2012/8/28 8:06,4.4,5,4.4,6,5.7,6
2012/8/28 8:07,4.5,5,4.5,6,6.5,7
2012/8/28 8:08,4.3,5,4.4,6,6.3,6
2012/8/28 8:09,4.1,5,4.3,6,6.7,5
2012/8/28 8:10,3.9,6,4.1,6,5.2,6
2012/8/28 8:11,3.9,6,3.9,5,6.9,5
2012/8/28 8:12,3.9,6,3.9,5,7.6,6
2012/8/28 8:13,4,6,4.1,5,6.8,6
2012/8/28 8:14,4.1,6,4.1,5,6.3,5
2012/8/28 8:15,4.1,5,4.2,5,7.7,4
2012/8/28 8:16,4.3,5,4.3,5,8.9,6
2012/8/28 8:17,4.2,5,4.3,5,7.8,5
2012/8/28 8:18,4.4,5,4.5,5,8.6,5
2012/8/28 8:19,4.3,5,4.4,5,6.1,4
2012/8/28 8:20,4.5,5,4.5,5,7.1,5
2012/8/28 8:21,4.5,5,4.6,5,5.1,4
2012/8/28 8:22,4.3,5,4.5,5,4.1,7
2012/8/28 8:23,4.3,5,4.4,5,6.1,6
2012/8/28 8:24,4.1,5,4.4,5,4.9,5
2012/8/28 8:25,3.8,5,4.1,5,3.6,4
2012/8/28 8:26,3.4,5,3.8,5,3.5,3
2012/8/28 8:27,3.4,5,3.4,5,4.9,6
2012/8/28 8:28,3,5,3.3,5,4.1,8
2012/8/28 8:29,3,6,3,5,7,8
2012/8/28 8:30,2.8,6,3,5,4.4,6
2012/8/28 8:31,2.6,6,2.7,5,4.4,9
2012/8/28 8:32,2.8,6,2.8,5,5.4,6
2012/8/28 8:33,2.6,6,2.8,5,4.5,5
2012/8/28 8:34,2.7,6,2.7,5,6.2,7
2012/8/28 8:35,2.9,6,2.9,5,6,4
2012/8/28 8:36,3.1,6,3.1,5,6.3,6
2012/8/28 8:37,3.1,6,3.2,5,6.8,6
2012/8/28 8:38,3.3,6,3.3,6,7.5,8
2012/8/28 8:39,3.4,6,3.4,6,5.2,7
2012/8/28 8:40,3.4,6,3.4,6,5,6
2012/8/28 8:41,3.4,6,3.4,6,4.1,8
2012/8/28 8:42,3.4,6,3.4,6,7,8
2012/8/28 8:43,3.4,6,3.4,6,6,7
2012/8/28 8:44,3.4,6,3.4,6,5.7,3
2012/8/28 8:45,3.3,6,3.4,6,6.7,5
2012/8/28 8:46,3.2,6,3.3,6,3.5,6
2012/8/28 8:47,3.1,6,3.2,6,5.4,5
2012/8/28 8:48,3,6,3.1,6,6.2,4
2012/8/28 8:49,2.9,6,3,6,4.7,4
2012/8/28 8:50,3,6,3,6,5.4,5
2012/8/28 8:51,2.9,6,3,6,5.1,8
2012/8/28 8:52,3,6,3,6,9,7
2012/8/28 8:53,3.4,6,3.4,6,9.7,8
2012/8/28 8:54,3.5,6,3.5,6,8.4,9
2012/8/28 8:55,3.7,6,3.7,6,9.2,9
2012/8/28 8:56,3.8,6,3.8,6,6.7,8
2012/8/28 8:57,3.8,6,3.8,6,5.6,4
2012/8/28 8:58,4.3,6,4.3,6,10.6,5
2012/8/28 8:59,4.8,7,4.8,7,11.9,5
2012/8/28 9:00,5.1,7,5.1,7,10.6,7
2012/8/28 9:01,5.4,7,5.4,7,10.8,6
2012/8/28 9:02,5.7,7,5.7,7,9.8,7
2012/8/28 9:03,5.8,6,5.8,7,11.4,6
2012/8/28 9:04,5.7,6,5.8,7,6.8,5
2012/8/28 9:05,5.5,6,5.7,7,7.2,6
2012/8/28 9:06,5.5,6,5.6,7,5.7,8
2012/8/28 9:07,5.7,6,5.7,7,8.2,6
2012/8/28 9:08,5.4,6,5.7,7,6.7,8
2012/8/28 9:09,4.9,7,5.4,7,6.5,8
2012/8/28 9:10,4.7,7,4.9,7,7,6
2012/8/28 9:11,4.7,7,4.8,7,9.1,6
2012/8/28 9:12,4.5,7,4.7,7,7.2,7
2012/8/28 9:13,4.2,7,4.4,6,7.8,5
2012/8/28 9:14,4.6,6,4.6,6,10.3,5
2012/8/28 9:15,4.6,6,4.7,6,7.6,6
2012/8/28 9:16,4.6,7,4.7,6,6.9,6
2012/8/28 9:17,4.7,6,4.7,6,13.1,6
2012/8/28 9:18,5,6,5,6,9.7,5
2012/8/28 9:19,5.2,6,5.2,6,10.1,6
2012/8/28 9:20,5.6,6,5.6,6,12.1,4
2012/8/28 9:21,5.9,6,5.9,6,10.9,5
2012/8/28 9:22,5.7,6,5.9,6,7.6,6
2012/8/28 9:23,5.7,6,5.7,6,8.2,7
2012/8/28 9:24,5.5,6,5.6,6,8.2,7
2012/8/28 9:25,5.6,6,5.6,6,8.9,7
2012/8/28 9:26,5.7,6,5.7,6,7.1,6
2012/8/28 9:27,5.3,6,5.7,6,7.9,6
2012/8/28 9:28,5,6,5.3,6,7.2,6
2012/8/28 9:29,4.8,6,5,6,6.3,8
2012/8/28 9:30,4.5,7,4.8,6,7,9
2012/8/28 9:31,3.9,7,4.4,6,7.6,9
2012/8/28 9:32,4,7,4,6,4.9,6
2012/8/28 9:33,3.7,7,4,6,3.1,7
2012/8/28 9:34,3.4,7,3.6,6,5.6,6
2012/8/28 9:35,3.2,7,3.4,6,7.4,7
2012/8/28 9:36,3.3,7,3.3,6,9,7
2012/8/28 9:37,3.5,7,3.5,6,9.8,7
2012/8/28 9:38,3.7,7,3.7,6,7.7,8
2012/8/28 9:39,3.7,7,3.8,7,6.9,6
2012/8/28 9:40,3.5,7,3.7,7,5.1,8
2012/8/28 9:41,3.6,7,3.6,7,5.8,6
2012/8/28 9:42,3.6,7,3.6,7,4.3,7
2012/8/28 9:43,3.8,7,3.8,7,8.1,7
2012/8/28 9:44,4,7,4,7,6,6
2012/8/28 9:45,3.9,7,4,7,4.4,7
2012/8/28 9:46,3.6,7,3.9,7,4.7,8
2012/8/28 9:47,3.4,7,3.6,7,5,5
2012/8/28 9:48,3.3,7,3.4,7,6.2,5
2012/8/28 9:49,3,7,3.3,7,3.9,4
2012/8/28 9:50,2.9,7,3,7,4.1,7
2012/8/28 9:51,2.8,7,2.9,7,5.4,6
2012/8/28 9:52,2.8,7,2.8,7,4.4,8
2012/8/28 9:53,2.7,7,2.8,7,4.8,7
2012/8/28 9:54,2.8,7,2.9,7,8.3,6
2012/8/28 9:55,3.1,6,3.1,7,11.4,7
2012/8/28 9:56,3.5,6,3.5,7,10,6
2012/8/28 9:57,3.9,6,3.9,6,9.5,7
2012/8/28 12:12,2,7,2,7,2,7
2012/8/28 12:13,3.9,6,3.9,6,5.7,6
2012/8/28 12:14,6.6,7,6.6,7,10.2,7
2012/8/28 12:15,6.9,7,6.9,7,12.7,8
2012/8/28 12:16,6.4,7,7.2,7,11.4,7
2012/8/28 12:17,5.8,7,6.3,7,9,6
2012/8/28 12:18,5.9,7,6,7,12.4,6
2012/8/28 12:19,5.8,7,5.9,7,9.2,5
2012/8/28 12:20,5.6,7,5.8,7,7.9,5
2012/8/28 12:21,5.4,7,5.6,7,6.3,8
2012/8/28 12:22,5.4,7,5.4,7,7.2,8
2012/8/28 12:23,5.4,7,5.4,7,9.5,6
2012/8/28 12:24,5.1,7,5.4,7,10.6,7
2012/8/28 12:25,4.9,7,5.2,7,13,6
2012/8/28 12:26,5.1,7,5.1,7,12.1,5
2012/8/28 12:35,5.5,7,5.5,7,6.8,8
2012/8/28 12:36,6.3,7,7.5,7,9.4,7
2012/8/28 12:37,5.6,7,6.3,7,7,5
2012/8/28 12:38,5.8,7,5.8,7,15.1,7
2012/8/28 12:39,6,7,6.1,7,13.9,8
2012/8/28 12:40,6.4,7,6.4,7,13.2,7
2012/8/28 12:41,6.5,7,6.6,7,12.5,6
2012/8/28 12:42,6.6,7,6.6,7,16.3,8
2012/8/28 12:43,6.8,7,6.8,7,13,7
2012/8/28 12:44,6.6,8,6.8,7,10.1,7
2012/8/28 12:45,6.4,8,6.6,7,11.3,8
2012/8/28 12:46,6.4,8,6.4,7,9.5,7
2012/8/28 12:47,6.6,8,6.6,7,11.6,8
2012/8/28 12:48,6.8,7,6.8,7,9.5,7
2012/8/28 12:49,6.5,7,6.8,7,11.7,7
2012/8/28 12:50,6.4,8,6.5,7,11,8
2012/8/28 12:51,6.1,8,6.4,7,10.3,6
2012/8/28 12:52,5.9,7,6.1,7,8.2,8
2012/8/28 12:53,5.7,7,5.8,7,10.2,9
2012/8/28 12:54,5.9,7,5.9,8,11.5,7
2012/8/28 12:55,6,7,6,8,11.1,8
2012/8/28 12:56,5.8,7,6,8,9.4,6
2012/8/28 12:57,5.5,7,5.8,8,7.5,6
2012/8/28 12:58,5.3,7,5.6,7,7.6,6
2012/8/28 12:59,5.4,7,5.4,7,7.8,7
2012/8/28 13:00,5.3,7,5.4,8,10,8
2012/8/28 13:01,5.3,7,5.3,8,10.2,8
2012/8/28 13:02,5.6,7,5.6,7,13.3,8
2012/8/28 13:03,5.5,7,5.7,7,13.3,8
2012/8/28 13:04,5.2,8,5.5,7,10,8
2012/8/28 13:12,4.3,7,4.3,7,8.6,7
2012/8/28 13:13,7.6,7,7.9,7,12.6,7
2012/8/28 13:14,6.7,8,7.7,7,11.1,7
2012/8/28 13:15,5.7,8,6.6,7,10.2,8
2012/8/28 13:16,5.3,8,5.6,7,9,9
2012/8/28 13:17,5.9,8,5.9,7,12.8,8
2012/8/28 13:18,5.8,8,6,7,10.7,8
2012/8/28 13:19,5.7,8,5.8,7,7.9,8
2012/8/28 13:20,5.6,8,5.7,7,9.2,8
2012/8/28 13:21,5.4,8,5.6,7,5.8,9
2012/8/28 13:22,5.3,8,5.4,7,7.7,7
2012/8/28 13:23,4.9,8,5.3,7,6.5,5
2012/8/28 13:24,4.5,8,4.8,8,5,5
2012/8/28 13:25,4.6,7,4.6,8,10.3,6
2012/8/28 13:26,4.7,7,4.8,8,7.9,6
2012/8/28 13:27,4.4,7,4.7,8,8.9,6
2012/8/28 13:28,4.2,7,4.4,8,7.1,7
2012/8/28 13:29,4.2,7,4.3,8,8.2,7
2012/8/28 13:30,4.1,7,4.2,8,9.9,7
2012/8/28 13:31,4.3,6,4.3,8,11.1,7
2012/8/28 13:32,4.3,6,4.4,8,7.4,7
2012/8/28 13:33,4.6,6,4.6,8,12.1,8
2012/8/28 13:34,4.9,7,4.9,6,11.1,7
2012/8/28 13:39,4.2,6,4.2,6,5.7,7
2012/8/28 13:40,4.2,7,4.2,6,6.2,8
2012/8/28 13:41,4,8,4.9,7,8.3,8
2012/8/28 13:42,4.1,8,4.3,7,7.5,8
2012/8/28 13:43,3.9,8,4,7,8.1,8
2012/8/28 13:44,4.3,8,4.3,7,9.7,7
2012/8/28 13:45,4.2,8,4.4,7,6.8,8
2012/8/28 13:46,4.2,8,4.2,7,7.7,6
2012/8/28 13:47,4.1,8,4.2,7,6.8,8
2012/8/28 13:48,4.1,8,4.1,7,8.4,6
2012/8/28 13:49,4.2,8,4.2,7,7.8,5
2012/8/28 13:50,4.4,8,4.4,7,11.1,7
2012/8/28 13:51,4.6,8,4.6,8,10.1,7
2012/8/28 13:52,4.8,8,4.8,8,9.2,8
2012/8/28 13:53,5,7,5,8,10.1,7
2012/8/28 13:54,4.8,7,5,8,6.4,8
2012/8/28 13:55,5,7,5,8,9.2,7
2012/8/28 14:09,4.4,7,4.4,7,4.4,7
2012/8/28 14:10,4.1,8,4.9,7,8.5,8
2012/8/28 14:11,6.3,8,6.3,8,13.2,8
2012/8/28 14:12,6,8,6.4,8,11,7
2012/8/28 14:13,6.2,8,6.2,8,14.4,8
2012/8/28 14:14,6.2,8,6.3,8,12.5,8
2012/8/28 14:15,5.9,8,6.3,8,10.1,8
2012/8/28 14:16,5.9,8,5.9,8,13.1,7
2012/8/28 14:17,6.1,8,6.1,8,11.7,8
2012/8/28 14:18,6.1,8,6.1,8,9.7,8
2012/8/28 14:19,6.1,8,6.1,8,11.7,8
2012/8/28 14:20,5.9,8,6,8,7,7
2012/8/28 14:21,5.7,8,5.9,8,11.3,8
2012/8/28 14:22,5.9,8,6,8,13.8,8
2012/8/28 14:23,6,8,6,8,10.3,8
2012/8/28 14:24,6,8,6,8,12.6,7
2012/8/28 14:25,6.1,8,6.1,8,11.8,8
2012/8/28 14:26,6.1,8,6.2,8,9.1,8
2012/8/28 14:27,5.8,8,6.1,8,9.9,6
2012/8/28 14:28,5.8,8,5.9,8,10,7
2012/8/28 14:29,5.7,8,5.8,8,8.4,8
2012/8/28 14:30,5.9,8,5.9,8,8.9,8
2012/8/28 14:31,5.9,8,5.9,8,10.6,6
2012/8/28 14:32,5.5,8,5.9,8,8.3,7
2012/8/28 14:33,5.6,7,5.6,8,11.7,7
2012/8/28 14:34,5.3,7,5.6,8,9.1,8
2012/8/28 14:35,5.3,7,5.3,8,12.5,8
2012/8/28 14:36,5.1,7,5.3,8,11.8,8
2012/8/28 14:37,5.4,7,5.5,8,12.4,7
2012/8/28 14:38,5.3,7,5.4,8,8.7,7
2012/8/28 14:39,5.5,7,5.5,8,13,7
2012/8/28 14:40,5.6,7,5.7,8,8.6,8
2012/8/28 14:41,5.4,7,5.6,8,9,7
2012/8/28 14:42,5.7,7,5.7,7,10.6,5
2012/8/28 14:43,5.4,7,5.7,7,6.9,6
2012/8/28 14:44,5.6,7,5.6,7,9.3,6
2012/8/28 14:45,5.6,7,5.7,7,11.4,6
2012/8/28 14:46,5.9,7,5.9,7,11.4,6
2012/8/28 14:47,5.5,7,5.9,7,8.7,6
2012/8/28 14:48,5.6,7,5.6,7,8.7,8
2012/8/28 14:49,5.3,6,5.6,7,9.2,6
2012/8/28 14:50,5.2,6,5.3,7,7.7,6
2012/8/28 14:51,5.3,6,5.3,7,10.2,6
2012/8/28 14:52,5.3,6,5.4,7,12.4,5
2012/8/28 14:53,5.5,6,5.5,7,8.9,7
2012/8/28 14:54,5.2,7,5.5,7,7.1,7
2012/8/28 14:55,4.8,6,5.2,7,7.5,6
2012/8/28 14:56,4.7,7,4.8,7,9.8,8
2012/8/28 14:57,4.9,7,4.9,7,9.7,8
2012/8/28 14:58,5.1,7,5.1,7,10.7,6
2012/8/28 14:59,5.2,7,5.2,6,9.9,5
2012/8/28 15:00,5.3,7,5.3,6,9.3,6
2012/8/28 15:01,5.4,6,5.4,6,8.5,6
2012/8/28 15:02,5.3,6,5.4,6,9.9,6
2012/8/28 15:03,5.4,6,5.4,6,11.3,6
2012/8/28 15:04,5.8,6,5.8,6,13,6
2012/8/28 15:05,6.1,6,6.1,6,11.3,6
2012/8/28 15:06,6.2,6,6.2,6,11.5,6
2012/8/28 15:07,6,6,6.1,6,9.2,6
2012/8/28 15:08,5.8,6,6.1,6,10.7,5
2012/8/28 15:09,5.8,6,5.8,6,7.7,6
2012/8/28 15:10,5.6,6,5.8,6,6.7,7
2012/8/28 15:11,5.4,7,5.6,6,7.4,6
2012/8/28 15:12,5.1,7,5.4,6,6.1,7
2012/8/28 15:13,4.8,7,5,6,10.2,7
2012/8/28 15:14,4.5,7,4.8,6,7.8,7
2012/8/28 15:15,4.4,7,4.5,6,6.4,7
2012/8/28 15:16,4.2,7,4.3,6,7.6,6
2012/8/28 15:17,4.1,7,4.2,6,7.1,6
2012/8/28 15:18,4.1,7,4.1,6,9.1,6
2012/8/28 15:19,4.1,7,4.2,6,8.5,6
2012/8/28 15:20,4,7,4.1,6,5,7
2012/8/28 15:21,3.9,7,4,7,4.4,6
2012/8/28 15:22,3.8,7,3.9,7,3.7,7
2012/8/28 15:28,2.5,8,2.5,8,2.5,8
2012/8/28 15:29,3.1,6,3.1,6,6,6
2012/8/28 15:30,4,6,4,6,7.9,5
2012/8/28 15:31,3.5,6,4.1,6,5.8,5
2012/8/28 15:32,3.4,6,3.5,6,7.2,7
2012/8/28 15:33,3.3,6,3.5,6,6,4
2012/8/28 15:34,3.3,6,3.3,6,5.4,6
2012/8/28 15:35,3.5,6,3.5,6,6.8,6
2012/8/28 15:36,3.4,6,3.5,6,4.8,7
2012/8/28 15:37,3.3,6,3.4,6,6,7
2012/8/28 15:38,3.4,6,3.4,6,7.1,6
2012/8/28 20:46,2.9,5,2.9,5,3.1,6
2012/8/28 20:47,3.6,5,3.6,5,5,5
2012/8/28 20:48,3.6,5,3.8,5,5.2,5
2012/8/28 20:49,3.3,5,3.6,5,4.3,6
2012/8/28 20:50,3.3,6,3.5,5,5.4,6
2012/8/28 20:51,3.3,6,3.3,5,5.2,5
2012/8/28 20:52,3.3,6,3.3,5,5.8,6
2012/8/28 20:53,3.3,6,3.3,5,4.4,5
2012/8/28 20:54,3.1,6,3.2,5,3.2,8
2012/8/28 20:55,3.2,6,3.2,5,5.6,8
2012/8/28 20:56,3.3,6,3.3,5,6.1,6
2012/8/28 20:57,3.1,6,3.3,5,4.4,7
2012/8/28 20:58,3,6,3.1,5,3.1,6
2012/8/28 20:59,2.9,6,3,6,3.1,6
2012/8/28 21:00,2.9,6,2.9,6,5.8,6
2012/8/28 21:01,2.9,6,3,6,4.1,6
2012/8/28 21:02,2.8,6,2.9,6,3.7,5
2012/8/28 21:03,2.6,6,2.8,6,2.9,6
2012/8/28 21:04,2.6,6,2.6,6,2.5,6
2012/8/28 21:05,2.4,6,2.6,6,2.6,6
2012/8/28 21:06,2.2,6,2.3,6,4.7,6
2012/8/28 21:07,2.2,6,2.2,6,4.4,9
2012/8/28 21:08,2.4,6,2.4,6,9.8,6
2012/8/28 21:09,2.5,6,2.5,6,6,7
2012/8/28 21:10,2.6,6,2.6,6,7.2,8
2012/8/28 21:11,2.6,7,2.6,6,4.7,6
2012/8/28 21:12,2.6,7,2.6,6,4.5,7
2012/8/28 21:13,3,7,3,7,9.3,6
2012/8/28 21:14,3.3,7,3.3,7,7.8,6
2012/8/28 21:15,3.5,7,3.5,7,5.5,6
2012/8/28 21:16,3.6,7,3.6,7,5.8,7
2012/8/28 21:17,3.8,7,3.8,7,7.6,6
2012/8/28 21:18,3.7,7,3.9,7,5.8,8
2012/8/28 21:19,3.9,7,3.9,7,7.8,8
2012/8/28 21:20,4,7,4,7,7,7
2012/8/28 21:21,4,7,4,7,6.1,6
2012/8/28 21:22,4,7,4.1,7,3.9,6
2012/8/28 21:23,3.7,7,4,7,2.7,5
2012/8/28 21:24,3.5,7,3.7,7,6.4,8
2012/8/28 21:25,3.4,7,3.5,7,4.3,7
2012/8/28 21:26,3.5,7,3.5,7,4.9,6
2012/8/28 21:27,3.3,7,3.5,7,4.9,5
2012/8/28 21:28,3.1,6,3.3,7,4.2,6
2012/8/28 21:29,2.7,6,3.1,7,2.1,8
2012/8/28 21:30,2.5,7,2.7,7,4.9,7
2012/8/28 21:31,2.5,7,2.5,7,5.1,7
2012/8/28 21:32,2.5,6,2.6,7,4.7,4
2012/8/28 21:33,2.5,6,2.5,7,4.8,8
2012/8/28 21:34,2.6,6,2.6,7,6,6
2012/8/28 21:35,2.8,6,2.8,7,8.1,8
2012/8/28 21:36,2.9,7,2.9,7,6.3,7
2012/8/28 21:37,2.8,7,2.9,7,3.6,7
2012/8/28 21:38,2.7,7,2.8,6,3,8
2012/8/28 21:39,2.6,7,2.7,6,2.5,9
2012/8/28 21:40,2.8,7,2.8,6,6.9,6
2012/8/28 21:41,2.8,7,2.9,6,5.4,8
2012/8/28 21:42,2.9,7,2.9,6,6.8,7
2012/8/28 21:43,3.1,7,3.1,7,5.7,6
2012/8/28 21:44,3,7,3.1,7,5.5,7
2012/8/28 21:45,2.8,7,3,7,4.8,8
2012/8/28 21:46,2.6,7,2.8,7,3.6,4
2012/8/28 21:47,2.6,7,2.6,7,3.7,6
2012/8/28 21:48,2.6,7,2.6,7,2.4,5
2012/8/28 21:49,2.6,7,2.6,7,2.9,8
2012/8/28 21:50,2.4,6,2.6,7,4.1,7
2012/8/28 21:51,2.4,6,2.4,7,4.4,5
2012/8/28 21:52,2.3,6,2.5,7,4.7,6
2012/8/28 21:53,2.2,6,2.3,7,4.9,6
2012/8/28 21:54,2.3,6,2.3,7,5.4,6
2012/8/28 21:55,2.5,6,2.5,7,9.4,6
2012/8/28 21:56,2.8,6,2.8,6,8.2,7
2012/8/28 21:57,3,7,3,7,7.8,7
2012/8/28 21:58,3.1,6,3.1,7,3.6,7
2012/8/28 21:59,3.2,6,3.3,6,4.5,6
2012/8/28 22:00,3.3,6,3.3,6,6.8,6
2012/8/28 22:01,3.3,6,3.3,6,3.9,6
2012/8/28 22:02,3.2,6,3.3,6,3.3,6
2012/8/28 22:03,3.1,7,3.2,6,3.8,8
2012/8/28 22:04,2.9,7,3.1,6,3.3,6
2012/8/28 22:05,2.6,6,2.9,6,2.5,6
2012/8/28 22:06,2.3,6,2.6,6,2.2,6
2012/8/28 22:07,1.9,6,2.2,6,2.7,5
2012/8/28 22:08,1.9,6,1.9,6,4.8,8